Regional Weather Roundup
Issued by NWS

Home | Current Version | Previous Version | Graphics & Text | Print | Product List | Glossary On
Versions: 1 2 3 4 5 6 7 8 9 10 11 12 13 14 15 16 17 18 19 20 21 22 23 24 25 26 27 28 29 30 31 32 33 34 35 36 37 38 39 40 41 42 43 44 45 46 47 48 49 50
882
ASUS43 KLSX 280510
RWRMO

WEATHER SUMMARY FOR MISSOURI
NATIONAL WEATHER SERVICE SPRINGFIELD MO
1200 AM CDT THU JUL 28 2016

NOTE: "FAIR" INDICATES FEW OR NO CLOUDS BELOW 12,000 FEET WITH NO
       SIGNIFICANT WEATHER AND/OR OBSTRUCTIONS TO VISIBILITY.
       CURRENT SKY AND/OR WEATHER CONDITIONS ARE NOT AVAILABLE FOR
       CHILLICOTHE AND FARMINGTON.

MOZ001>031-035>038-043-044-053-054-280600-
...NORTHERN AND WESTERN MISSOURI...

CITY           SKY/WX    TMP DP  RH WIND       PRES   REMARKS
KANSAS CTY INT PTCLDY    78  71  79 SE3       29.96F
KANSAS C DTWN  CLEAR     82  70  66 CALM      29.94F
LEE`S SUMMIT   CLOUDY    79  71  76 NE3       29.97S
ST JOSEPH      PTCLDY    74  71  91 N3        29.95F
CHILLICOTHE      N/A     75  72  90 CALM      29.96S
KIRKSVILLE     CLEAR     72  69  90 N5        29.96S

$$
MOZ066>068-077>081-088>096-101>105-280600-
...SOUTHWEST MISSOURI...

CITY           SKY/WX    TMP DP  RH WIND       PRES   REMARKS
SPRINGFIELD    PTCLDY    74  70  87 CALM      29.97R
JOPLIN         PTCLDY    73  71  93 CALM      29.96R
BRANSON        CLOUDY    73  73 100 CALM      29.98S

$$
MOZ032>034-039>042-045>050-055>058-069>072-280600-
...CENTRAL MISSOURI...

CITY           SKY/WX    TMP DP  RH WIND       PRES   REMARKS
COLUMBIA       CLEAR     78  72  81 CALM      29.94F
JEFFERSON CITY MOCLDY    79  76  90 CALM      29.93R
ROLLA          MOCLDY    72  69  90 S7        29.95S
SEDALIA        CLOUDY    77  73  87 NW3       29.96S
WHITEMAN AFB   PTCLDY    78  77  95 N3        29.94S
OSAGE BEACH    CLOUDY    75  72  90 S5        29.96S

$$
MOZ051-052-059>065-280600-
...EAST CENTRAL MISSOURI...

CITY           SKY/WX    TMP DP  RH WIND       PRES   REMARKS
ST LOUIS INTL  MOCLDY    81  71  71 E7        29.94S
SPIRIT OF STL  PTCLDY    76  75  97 MISG      29.91F
ST CHARLES     PTCLDY    78  77  96 CALM      29.91F

$$
MOZ072>076-082>087-097>100-106>115-280600-
...SOUTH CENTRAL AND SOUTHEAST MISSOURI...

CITY           SKY/WX    TMP DP  RH WIND       PRES   REMARKS
CAPE GIRARDEAU CLOUDY    75  72  90 SE3       29.92R
FARMINGTON     CLOUDY    74  72  93 S5        29.96S
POPLAR BLUFF   LGT RAIN  76  74  93 CALM      29.92S
WEST PLAINS    CLOUDY    72  69  90 NW3       29.99S

$$




USA.gov is the U.S. government's official web portal to all federal, state and local government web resources and services.